[Iaude] MPEC B166: 2024 BR3 [a=1.53,e=0.34,i=18.8,H=25.1]

mpec at marsden.cfa.harvard.edu mpec at marsden.cfa.harvard.edu
Tue Jan 30 22:13:21 EST 2024


M.P.E.C. 2024-B166                             Issued 2024 January 31, 03:11 UT

     The Minor Planet Electronic Circulars contain information on unusual
         minor planets, routine data on comets and natural satellites,
         and occasional editorial announcements.  They are published
    on behalf of Division F of the International Astronomical Union by the
          Minor Planet Center, Smithsonian Astrophysical Observatory,
                          Cambridge, MA 02138, U.S.A.
			  
             Prepared using the Tamkin Foundation Computer Network

                              MPC at CFA.HARVARD.EDU
            URL https://www.minorplanetcenter.net/    ISSN 1523-6714

                                    2024 BR3                                    


Observations:
     K24B03R  C2024 01 27.56321411 45 13.716+52 53 02.03               VEB166F52
     K24B03R  C2024 01 27.57190511 45 03.961+52 49 30.18         19.62GVEB166F52
     K24B03R  C2024 01 27.58036211 44 54.394+52 46 01.77         19.25GVEB166F52
     K24B03R  C2024 01 27.58888311 44 44.695+52 42 29.30         20.12GVEB166F52
     K24B03R* C2024 01 30.43744511 03 37.453+25 47 15.20         18.7 GVEB166U68
     K24B03R  C2024 01 30.44138011 03 34.012+25 44 27.20         18.7 GVEB166U68
     K24B03R  C2024 01 30.45364111 03 23.389+25 35 42.09         19.0 GVEB166U74
     K24B03R  C2024 01 30.45732511 03 20.206+25 33 04.61         19.0 GVEB166U74
     K24B03R  C2024 01 30.45866311 03 19.058+25 32 07.95         18.7 GVEB166U68
     K24B03R  C2024 01 30.46259611 03 15.648+25 29 18.97         18.7 GVEB166U68
     K24B03R  C2024 01 30.47132811 03 08.085+25 23 03.90         18.9 GVEB166U74
     K24B03R  C2024 01 30.47509111 03 04.863+25 20 22.46         18.9 GVEB166U74
     K24B03R KC2024 01 30.93989610 57 39.15 +19 41 09.2          18.4 GXEB166958
     K24B03R KC2024 01 30.94413810 57 35.85 +19 38 01.3          18.2 GXEB166958
     K24B03R KC2024 01 30.94833310 57 32.60 +19 34 58.1          18.1 GXEB166958
     K24B03R KB2024 01 30.97514610 57 11.24 +19 15 11.1          17.9 GXEB166I93
     K24B03R KB2024 01 30.97818110 57 08.86 +19 12 57.2          19.2 GXEB166I93
     K24B03R KB2024 01 30.97994 10 57 01.52 +19 11 50.4          18.3 GXEB166M45
     K24B03R KB2024 01 30.98114510 57 06.50 +19 10 47.2          18.3 GXEB166I93
     K24B03R KB2024 01 30.98313 10 56 58.90 +19 09 28.8          18.6 GXEB166M45
     K24B03R KB2024 01 30.98600 10 56 56.59 +19 07 21.9          18.3 GXEB166M45

Observer details:
958 Observatoire de Dax.  Observers P. Dupouy, J. B. de Vanssay.  Measurer P.
    Dupouy.  0.43-m f/2.7 Reflector + CCD.
F52 Pan-STARRS 2, Haleakala.  Observers J. Herman, T. Lowe, P. Minguez, A.
    Schultz, I. Smith.  Measurers K. Chambers, T. de Boer, J. Fairlamb, H.
    Gao, M. Huber, C.-C. Lin, E. Magnier, Y. Ramanjooloo, R. Wainscoat, R.
    Weryk.  1.8-m Ritchey-Chretien + CCD.
I93 St Pardon de Conques.  Observer F. Losse.  0.40-m f/3.7 reflector + CMO.
M45 Starhopper Observatory, Sfantu Gheorghe.  Observer F. Ursache.  0.41-m
    f/7.5 reflector + CMO.
U68 JPL SynTrack Robotic Telescope, Auberry.  Observers N. Saini, C. Zhai, R.
    Trahan, M. Zhan, M. Shao.  0.28-m Reflector + CCD.
U74 JPL SynTrack Robotic Telescope 2, Auberry.  Observers N. Saini, C. Zhai,
    R. Trahan, M. Zhan, M. Shao.  0.36-m Reflector + CCD.

Orbital elements:
2024 BR3                                                 Earth MOID = 0.0243 AU
Epoch 2023 Sept. 13.0 TT = JDT 2460200.5                Veres                   
M 289.14701              (2000.0)            P               Q                  
n   0.51998189     Peri.  174.77950     -0.60209766     -0.76151401             
a   1.5315949      Node   311.98141     +0.72035977     -0.38851360             
e   0.3405578      Incl.   18.83155     +0.34432572     -0.51880014             
P   1.90           H   25.18          G   0.15           U   8                  
Residuals in seconds of arc
240127 F52  0.1-  0.2-    240130 U74  0.1-  0.5-    240130 958  0.1+  1.4+
240127 F52 (0.8+  1.4+)   240130 U68  0.0   0.2+    240130 I93  0.3-  1.4-
240127 F52  0.8+  1.6+    240130 U68  0.1-  0.2-    240130 I93  0.1-  1.4-
240127 F52  0.3+  0.3+    240130 U74  0.5-  0.6-    240130 M45  0.8+  0.2+
240130 U68  0.1+  0.3+    240130 U74  0.2-  0.4-    240130 I93  0.3-  0.5-
240130 U68  0.2-  0.3+    240130 958  0.2+  1.5+    240130 M45  0.3+  0.0
240130 U74  0.2-  0.7-    240130 958  0.0   0.0     240130 M45  0.4+  0.4+

Ephemeris:
2024 BR3                 a,e,i = 1.53, 0.34, 19                  q = 1.0100
Date    TT    R. A. (2000) Decl.     Delta      r    Elong.  Phase     V
2024 01 01    17 58 49.1 +79 23 21   0.1937  1.0430   102.6    66.9    24.1
...
2024 01 16    15 37 22.9 +78 09 29   0.1042  1.0162   105.3    69.0    22.7
...
2024 01 24    12 51 59.7 +68 55 05   0.05671 1.0105   116.1    61.0    21.1
...
2024 01 30    11 09 16.7 +30 51 34   0.03072 1.0104   145.3    33.8    19.0
2024 01 31    10 56 43.5 +18 59 51   0.02938 1.0107   150.1    29.0    18.8
2024 02 01    10 45 19.1 +06 34 10   0.02945 1.0111   151.0    28.2    18.8
...
2024 02 07    09 55 33.9 -40 22 33   0.05185 1.0156   123.4    54.2    20.8
...
2024 02 15    09 19 47.0 -55 49 44   0.09892 1.0269   110.8    64.0    22.5
...
2024 03 01    08 54 04.6 -61 30 27   0.1896  1.0630   107.4    62.8    23.9

M. P. C. Staff               (C) Copyright 2024 MPC           M.P.E.C. 2024-B166





More information about the Iaude mailing list